Flag for U.S.A. Weather past 2 weeks in Stillwater, Minnesota, U.S.A.

Now
34 °F

Passing clouds.


Feels Like: 24 °F
Forecast: 32 / 51 °F
Wind: 15 mph from South

Location: St. Paul Downtown Holman Field

Current Time: Mar 29, 2015 at 8:06:27 AM

Latest Report: Mar 29, 2015 at 6:53 AM


Visibility: 10 mi

Pressure: 29.69 "Hg

Humidity: 85%

Dew point: 30 °F

Location of StillwaterLocation

Historic Weather in Stillwater — Graph

°F

Stillwater temperature yesterday

Maximum temperature yesterday: 42 °F (at 3:53 PM)
Minimum temperature yesterday: 21 °F (at 5:53 AM)
Average temperature yesterday: 32 °F

Past Weeks' High & Low Weather Summary

 TemperatureHumidityPressure
High68 °F (Mar 15, 4:53 PM)96% (Mar 24, 11:01 PM)30.53 "Hg (Mar 24, 11:01 PM)
Low19 °F (Mar 27, 5:53 AM)18% (Mar 17, 3:53 PM)29.69 "Hg (Mar 29, 6:53 AM)
Average37 °F58%30.15 "Hg
* Reported Mar 14 6:53 AM — Mar 29 6:53 AM, Stillwater, Weather by CustomWeather, © 2015

Note: Actual official high and low records may vary slightly from our data, if they occured in-between our weather recording intervals... More about our weather records

Advertising

Stillwater weather history for previous 24 hours

 ConditionsComfort  
Time TempWeatherWind HumidityBarometerVisibility
6:53 AM
Sun, Mar 29
34 °FPassing clouds.15 mph85%29.69 "Hg10 mi
5:53 AM34 °FOvercast.14 mph85%29.74 "Hg10 mi
4:53 AM34 °FLight rain. Overcast.21 mph82%29.77 "Hg6 mi
3:53 AM36 °FLight rain. Partly cloudy.15 mph62%29.83 "Hg10 mi
2:53 AM35 °FClear.20 mph59%29.87 "Hg10 mi
1:53 AM36 °FClear.22 mph52%29.89 "Hg10 mi
12:53 AM36 °FClear.17 mph50%29.93 "Hg10 mi
11:53 PM
Sat, Mar 28
35 °FClear.14 mph59%29.95 "Hg10 mi
10:53 PM35 °FClear.16 mph59%30.00 "Hg10 mi
9:53 PM35 °FClear.15 mph59%30.04 "Hg10 mi
8:53 PM35 °FClear.13 mph56%30.08 "Hg10 mi
7:53 PM37 °FSunny.14 mph52%30.09 "Hg10 mi
6:53 PM39 °FSunny.14 mph48%30.11 "Hg10 mi
5:53 PM42 °FSunny.15 mph41%30.13 "Hg10 mi
4:53 PM41 °FSunny.18 mph41%30.16 "Hg10 mi
3:53 PM42 °FSunny.16 mph29%30.18 "Hg10 mi
2:53 PM41 °FSunny.15 mph32%30.21 "Hg10 mi
1:53 PM41 °FSunny.12 mph35%30.23 "Hg10 mi
12:53 PM40 °FSunny.12 mph36%30.25 "Hg10 mi
11:53 AM38 °FSunny.9 mph37%30.28 "Hg10 mi
10:53 AM35 °FSunny.8 mph40%30.29 "Hg10 mi
9:53 AM32 °FSunny.12 mph41%30.29 "Hg10 mi
8:53 AM27 °FSunny.9 mph58%30.30 "Hg10 mi
Weather by CustomWeather, © 2015

See weather overviewHow to use our weather pages